RUK27GK EGSS-LEXJ

Flight info

Callsign RUK27GK
Flight time N/A
Altitude 32000
Route NUGBO M183 SILVA Q41 SAM N63 LELNA/N0461F330 DCT ERCOZ DCT NOVAN DCT DELOG N864 SNR M190 OBETO
Aircraft B738/M-SDE2E3FGHIRWXY/LB1

Departure

Time 2026-05-04 09:11
Airport London Stansted Airport (EGSS)

Arrival

Time N/A
Airport Seve Ballesteros-Santander Airport (LEXJ)
Time Latitude Longitude Altitude Speed Heading
2026-05-04 08:49 51.89365 0.25734 355 ft 0 kts 42°
2026-05-04 09:03 51.89360 0.25726 356 ft 4 kts 39°
2026-05-04 09:03 51.89338 0.25706 359 ft 4 kts
2026-05-04 09:03 51.89314 0.25710 357 ft 4 kts 323°
2026-05-04 09:04 51.89307 0.25718 355 ft 0 kts 313°
2026-05-04 09:06 51.89311 0.25713 356 ft 3 kts 314°
2026-05-04 09:07 51.88760 0.24652 350 ft 22 kts 223°
2026-05-04 09:08 51.88646 0.24482 351 ft 22 kts 223°
2026-05-04 09:08 51.88533 0.24312 344 ft 23 kts 223°
2026-05-04 09:08 51.88399 0.24110 351 ft 30 kts 223°
2026-05-04 09:08 51.88230 0.23857 346 ft 35 kts 223°
2026-05-04 09:09 51.88047 0.23583 338 ft 36 kts 223°
2026-05-04 09:09 51.87869 0.23317 338 ft 34 kts 223°
2026-05-04 09:09 51.87736 0.23106 336 ft 22 kts 243°
2026-05-04 09:09 51.87806 0.22904 338 ft 22 kts 313°
2026-05-04 09:10 51.87909 0.22725 331 ft 20 kts 312°
2026-05-04 09:10 51.87971 0.22687 333 ft 10 kts 37°
2026-05-04 09:10 51.88120 0.22909 332 ft 61 kts 43°
2026-05-04 09:10 51.88601 0.23631 339 ft 125 kts 43°
2026-05-04 09:11 51.89351 0.24764 574 ft 158 kts 41°
2026-05-04 09:11 51.90185 0.26014 1241 ft 169 kts 41°
2026-05-04 09:11 51.91036 0.27295 2159 ft 159 kts 42°
2026-05-04 09:11 51.91873 0.28557 2709 ft 177 kts 42°
2026-05-04 09:12 51.92954 0.29733 2952 ft 203 kts 22°
2026-05-04 09:12 51.94410 0.30086 3196 ft 222 kts 354°
2026-05-04 09:14 51.98367 0.12097 7594 ft 274 kts 278°
2026-05-04 09:14 51.98681 0.09026 8323 ft 277 kts 278°
2026-05-04 09:14 51.98935 0.05964 9093 ft 279 kts 268°
2026-05-04 09:14 51.98618 0.02872 9863 ft 279 kts 256°
2026-05-04 09:15 51.98187 -0.00233 10426 ft 289 kts 256°
2026-05-04 09:15 51.97746 -0.03549 10594 ft 312 kts 256°
2026-05-04 09:15 51.97284 -0.07108 10765 ft 334 kts 257°
2026-05-04 09:15 51.96792 -0.10895 10924 ft 354 kts 257°
2026-05-04 09:17 51.92401 -0.44332 15523 ft 394 kts 257°
2026-05-04 09:18 51.91768 -0.48660 15998 ft 397 kts 250°
2026-05-04 09:18 51.90393 -0.52526 16527 ft 399 kts 227°
2026-05-04 09:18 51.88236 -0.55312 17236 ft 399 kts 210°
2026-05-04 09:18 51.85780 -0.57428 17890 ft 402 kts 207°
2026-05-04 09:19 51.83287 -0.59541 18425 ft 406 kts 207°
2026-05-04 09:19 51.80776 -0.61675 18966 ft 409 kts 208°
2026-05-04 09:19 51.78262 -0.63827 19546 ft 410 kts 208°
2026-05-04 09:19 51.75747 -0.65992 20101 ft 411 kts 208°
2026-05-04 09:20 51.73218 -0.68180 20626 ft 414 kts 209°
2026-05-04 09:20 51.70675 -0.70384 21118 ft 416 kts 209°
2026-05-04 09:20 51.68156 -0.72571 21623 ft 418 kts 209°
2026-05-04 09:20 51.65588 -0.74798 22131 ft 420 kts 209°
2026-05-04 09:21 51.63844 -0.76308 22462 ft 421 kts 209°
2026-05-04 09:21 51.60454 -0.79243 23130 ft 423 kts 210°
2026-05-04 09:21 51.57854 -0.81489 23663 ft 423 kts 210°
2026-05-04 09:21 51.55255 -0.83731 24050 ft 426 kts 209°
2026-05-04 09:22 51.52635 -0.85987 24381 ft 429 kts 209°
2026-05-04 09:22 51.50892 -0.87488 24648 ft 429 kts 209°
2026-05-04 09:22 51.48262 -0.89749 25084 ft 429 kts 208°
2026-05-04 09:22 51.44928 -0.92612 25617 ft 430 kts 208°
2026-05-04 09:23 51.42288 -0.94875 25998 ft 431 kts 208°
2026-05-04 09:23 51.39639 -0.97142 26372 ft 432 kts 208°
2026-05-04 09:23 51.36981 -0.99415 26712 ft 434 kts 208°
2026-05-04 09:23 51.34312 -1.01694 27049 ft 435 kts 208°
2026-05-04 09:25 51.16671 -1.16680 30255 ft 422 kts 207°
2026-05-04 09:25 51.14080 -1.18871 30535 ft 423 kts 207°
2026-05-04 09:26 51.11508 -1.21042 30734 ft 426 kts 207°
2026-05-04 09:26 51.08887 -1.23252 30998 ft 427 kts 207°
2026-05-04 09:26 51.06268 -1.25458 31316 ft 427 kts 207°
2026-05-04 09:26 51.03640 -1.27669 31595 ft 428 kts 207°
2026-05-04 09:27 51.01003 -1.29885 31778 ft 431 kts 207°
2026-05-04 09:27 50.98333 -1.32124 31711 ft 435 kts 207°
2026-05-04 09:27 50.95523 -1.33836 31696 ft 433 kts 192°
2026-05-04 09:27 50.92517 -1.34260 31131 ft 437 kts 177°
2026-05-04 09:28 50.89567 -1.33243 30547 ft 437 kts 161°
2026-05-04 09:28 50.86947 -1.30898 29911 ft 442 kts 145°
2026-05-04 09:28 50.84827 -1.27352 29198 ft 448 kts 128°
2026-05-04 09:28 50.83431 -1.22916 28503 ft 455 kts 111°
2026-05-04 09:29 50.82892 -1.17965 27817 ft 461 kts 94°
2026-05-04 09:29 50.83267 -1.12912 27147 ft 466 kts 77°
2026-05-04 09:29 50.84531 -1.08201 26502 ft 469 kts 60°
2026-05-04 09:29 50.86586 -1.04212 25877 ft 469 kts 43°
2026-05-04 09:30 50.89187 -1.01113 25276 ft 466 kts 33°
2026-05-04 09:30 50.91918 -0.98391 24665 ft 463 kts 31°
2026-05-04 09:30 50.94619 -0.95808 24063 ft 455 kts 31°
2026-05-04 09:30 50.97301 -0.93266 23437 ft 445 kts 31°
2026-05-04 09:31 50.99936 -0.90772 22737 ft 436 kts 31°
2026-05-04 09:31 51.02514 -0.88332 22054 ft 428 kts 31°
2026-05-04 09:31 51.05054 -0.85930 21391 ft 421 kts 31°
2026-05-04 09:31 51.07550 -0.83571 20746 ft 414 kts 31°
2026-05-04 09:32 51.10010 -0.81249 20119 ft 408 kts 31°
2026-05-04 09:32 51.12435 -0.78961 19503 ft 403 kts 31°
2026-05-04 09:34 51.27060 -0.60305 17840 ft 392 kts 42°
2026-05-04 09:34 51.29281 -0.57791 17422 ft 390 kts 31°
2026-05-04 09:34 51.31593 -0.55567 17030 ft 386 kts 31°
2026-05-04 09:34 51.33880 -0.53342 16642 ft 383 kts 32°
2026-05-04 09:35 51.36142 -0.51097 16289 ft 381 kts 32°
2026-05-04 09:35 51.38366 -0.48851 16035 ft 376 kts 33°
2026-05-04 09:35 51.40553 -0.46614 15775 ft 372 kts 33°
2026-05-04 09:35 51.42717 -0.44384 15522 ft 368 kts 33°